Tiempo cada hora Celbowko

Hoy, 19 Abril, Lunes

Tiempo Temperatura Precipitaciones Viento Presión Humedad
00:00 +5°C° 0 mm 3 mps 764 mmHg 82%
01:00 +6°C° 0 mm 2 mps 764 mmHg 83%
02:00 +6°C° 0 mm 2 mps 764 mmHg 84%
03:00 +6°C° 0 mm 2 mps 763 mmHg 86%
04:00 +7°C° 0 mm 2 mps 763 mmHg 87%
05:00 +8°C° 0 mm 3 mps 763 mmHg 82%
06:00 +8°C° 0 mm 3 mps 763 mmHg 76%
07:00 +9°C° 0 mm 3 mps 763 mmHg 69%
08:00 +11°C° 0 mm 3 mps 763 mmHg 64%
09:00 +12°C° 0 mm 4 mps 763 mmHg 58%
10:00 +13°C° 0 mm 4 mps 763 mmHg 52%
11:00 +13°C° 0 mm 4 mps 763 mmHg 51%
12:00 +13°C° 0 mm 5 mps 763 mmHg 49%
13:00 +14°C° 0 mm 5 mps 763 mmHg 47%
14:00 +13°C° 0 mm 5 mps 763 mmHg 47%
15:00 +13°C° 0 mm 5 mps 763 mmHg 47%
16:00 +12°C° 0 mm 5 mps 763 mmHg 47%
17:00 +11°C° 0 mm 4 mps 763 mmHg 54%
18:00 +8°C° 0 mm 4 mps 763 mmHg 61%
19:00 +6°C° 0 mm 4 mps 763 mmHg 69%
20:00 +7°C° 0 mm 3 mps 762 mmHg 69%
21:00 +7°C° 0 mm 2 mps 762 mmHg 70%
22:00 +7°C° 0 mm 2 mps 762 mmHg 70%
23:00 +7°C° 0 mm 2 mps 762 mmHg 69%

Mañana, 20 Abril, Martes

Tiempo Temperatura Precipitaciones Viento Presión Humedad
00:00 +9°C° 0 mm 1 mps 762 mmHg 68%
01:00 +9°C° 0 mm 1 mps 761 mmHg 67%
02:00 +9°C° 0 mm 1 mps 761 mmHg 68%
03:00 +10°C° 0 mm 1 mps 761 mmHg 69%
04:00 +10°C° 0 mm 1 mps 761 mmHg 70%
05:00 +10°C° 0 mm 1 mps 761 mmHg 69%
06:00 +11°C° 0 mm 1 mps 761 mmHg 69%
07:00 +12°C° 0 mm 1 mps 761 mmHg 68%
08:00 +13°C° 0.1 mm 1 mps 761 mmHg 64%
09:00 +14°C° 0.1 mm 2 mps 761 mmHg 61%
10:00 +14°C° 0.1 mm 2 mps 760 mmHg 57%
11:00 +15°C° 0 mm 2 mps 760 mmHg 53%
12:00 +15°C° 0 mm 2 mps 760 mmHg 50%
13:00 +16°C° 0 mm 3 mps 760 mmHg 46%
14:00 +14°C° 0 mm 3 mps 759 mmHg 47%
15:00 +14°C° 0 mm 3 mps 759 mmHg 48%
16:00 +14°C° 0 mm 3 mps 759 mmHg 48%
17:00 +12°C° 0 mm 3 mps 759 mmHg 55%
18:00 +12°C° 0 mm 2 mps 759 mmHg 62%
19:00 +9°C° 0 mm 2 mps 759 mmHg 69%
20:00 +9°C° 0 mm 2 mps 758 mmHg 70%
21:00 +9°C° 0 mm 1 mps 758 mmHg 71%
22:00 +8°C° 0 mm 0 mps 758 mmHg 72%
23:00 +8°C° 0 mm 1 mps 758 mmHg 72%

Pasado mañana, 21 Abril, Miércoles

Tiempo Temperatura Precipitaciones Viento Presión Humedad
00:00 +8°C° 0 mm 1 mps 758 mmHg 72%
01:00 +8°C° 0 mm 1 mps 757 mmHg 72%
02:00 +7°C° 0 mm 2 mps 757 mmHg 73%
03:00 +6°C° 0 mm 2 mps 757 mmHg 74%
04:00 +6°C° 0 mm 2 mps 756 mmHg 75%
05:00 +7°C° 0 mm 2 mps 756 mmHg 71%
06:00 +8°C° 0 mm 2 mps 756 mmHg 67%
07:00 +10°C° 0 mm 3 mps 756 mmHg 63%
08:00 +11°C° 0 mm 3 mps 756 mmHg 58%
09:00 +12°C° 0 mm 3 mps 756 mmHg 52%
10:00 +13°C° 0 mm 3 mps 755 mmHg 47%
11:00 +13°C° 0 mm 4 mps 755 mmHg 48%
12:00 +13°C° 0 mm 4 mps 755 mmHg 49%
13:00 +13°C° 0 mm 5 mps 755 mmHg 49%
14:00 +13°C° 0 mm 5 mps 754 mmHg 51%
15:00 +11°C° 0 mm 6 mps 754 mmHg 53%
16:00 +11°C° 0 mm 6 mps 754 mmHg 55%
17:00 +10°C° 0 mm 6 mps 754 mmHg 64%
18:00 +8°C° 0 mm 6 mps 754 mmHg 74%
19:00 +5°C° 0 mm 6 mps 754 mmHg 84%
20:00 +5°C° 0 mm 6 mps 754 mmHg 81%
21:00 +4°C° 0 mm 6 mps 754 mmHg 79%
22:00 +4°C° 0 mm 6 mps 754 mmHg 77%
23:00 +3°C° 0 mm 6 mps 754 mmHg 77%

22 Abril, Jueves

Tiempo Temperatura Precipitaciones Viento Presión Humedad
00:00 +3°C° 0 mm 7 mps 753 mmHg 77%
01:00 +2°C° 0 mm 7 mps 753 mmHg 78%
02:00 +1°C° 0 mm 8 mps 753 mmHg 78%
03:00 0°C° 0 mm 8 mps 753 mmHg 78%
04:00 0°C° 0 mm 9 mps 752 mmHg 78%
05:00 0°C° 0 mm 9 mps 752 mmHg 76%
06:00 +1°C° 0 mm 9 mps 752 mmHg 75%
07:00 +1°C° 0 mm 10 mps 752 mmHg 73%
08:00 +2°C° 0 mm 10 mps 752 mmHg 72%
09:00 +2°C° 0 mm 9 mps 752 mmHg 71%
10:00 +3°C° 0 mm 9 mps 753 mmHg 70%
11:00 +3°C° 0.1 mm 9 mps 753 mmHg 71%
12:00 +3°C° 0.1 mm 9 mps 753 mmHg 71%
13:00 +5°C° 0.1 mm 9 mps 753 mmHg 72%
14:00 +4°C° 0.4 mm 8 mps 753 mmHg 74%
15:00 +4°C° 0.4 mm 8 mps 753 mmHg 76%
16:00 +3°C° 0.4 mm 7 mps 753 mmHg 78%
17:00 +3°C° 0.2 mm 7 mps 753 mmHg 82%
18:00 +2°C° 0.2 mm 6 mps 754 mmHg 87%
19:00 +2°C° 0.2 mm 6 mps 754 mmHg 92%
20:00 +1°C° 0.1 mm 6 mps 754 mmHg 91%
21:00 +1°C° 0.1 mm 6 mps 754 mmHg 89%
22:00 +1°C° 0.1 mm 5 mps 754 mmHg 88%
23:00 +1°C° 0.1 mm 6 mps 754 mmHg 90%

23 Abril, Viernes

Tiempo Temperatura Precipitaciones Viento Presión Humedad
00:00 +1°C° 0.1 mm 6 mps 755 mmHg 92%
01:00 0°C° 0.1 mm 7 mps 755 mmHg 94%
02:00 0°C° 0.2 mm 8 mps 755 mmHg 94%
03:00 0°C° 0.2 mm 8 mps 755 mmHg 93%
04:00 +1°C° 0.2 mm 9 mps 756 mmHg 93%
05:00 +1°C° 0.1 mm 9 mps 756 mmHg 91%
06:00 +1°C° 0.1 mm 10 mps 757 mmHg 88%
07:00 +1°C° 0.1 mm 10 mps 758 mmHg 86%
08:00 +1°C° 0.2 mm 10 mps 758 mmHg 85%
09:00 +1°C° 0.2 mm 10 mps 759 mmHg 84%
10:00 +1°C° 0.2 mm 10 mps 760 mmHg 83%
11:00 +2°C° 0.2 mm 10 mps 760 mmHg 77%
12:00 +3°C° 0.2 mm 9 mps 761 mmHg 70%
13:00 +3°C° 0.2 mm 9 mps 761 mmHg 63%
14:00 +4°C° 0 mm 8 mps 762 mmHg 57%
15:00 +5°C° 0 mm 7 mps 762 mmHg 51%
16:00 +5°C° 0 mm 6 mps 762 mmHg 44%
17:00 +4°C° 0 mm 6 mps 762 mmHg 47%
18:00 +3°C° 0 mm 5 mps 763 mmHg 50%
19:00 +4°C° 0 mm 4 mps 763 mmHg 53%
20:00 +4°C° 0 mm 4 mps 762 mmHg 57%
21:00 +4°C° 0 mm 4 mps 762 mmHg 62%
22:00 +3°C° 0 mm 4 mps 762 mmHg 66%
23:00 +2°C° 0 mm 5 mps 762 mmHg 66%

24 Abril, Sábado

Tiempo Temperatura Precipitaciones Viento Presión Humedad
00:00 +2°C° 0 mm 6 mps 762 mmHg 66%
01:00 +2°C° 0 mm 7 mps 761 mmHg 66%
02:00 +1°C° 1.2 mm 6 mps 760 mmHg 75%
03:00 +1°C° 1.2 mm 6 mps 760 mmHg 85%
04:00 +1°C° 1.2 mm 5 mps 759 mmHg 95%
05:00 +1°C° 0.9 mm 6 mps 759 mmHg 94%
06:00 +2°C° 0.9 mm 6 mps 758 mmHg 93%
07:00 +3°C° 0.9 mm 6 mps 758 mmHg 92%
08:00 +3°C° 0 mm 6 mps 758 mmHg 88%
09:00 +3°C° 0 mm 6 mps 759 mmHg 84%
10:00 +4°C° 0 mm 6 mps 759 mmHg 80%
11:00 +3°C° 0.1 mm 6 mps 760 mmHg 81%
12:00 +3°C° 0.1 mm 7 mps 761 mmHg 81%
13:00 +2°C° 0.1 mm 7 mps 761 mmHg 81%
14:00 +3°C° 0 mm 7 mps 762 mmHg 71%
15:00 +3°C° 0 mm 7 mps 762 mmHg 62%
16:00 +4°C° 0 mm 6 mps 762 mmHg 52%
17:00 +3°C° 0 mm 6 mps 763 mmHg 59%
18:00 +2°C° 0 mm 5 mps 763 mmHg 65%
19:00 +1°C° 0 mm 5 mps 763 mmHg 71%
20:00 +1°C° 0 mm 5 mps 763 mmHg 75%
21:00 0°C° 0 mm 4 mps 763 mmHg 78%
22:00 0°C° 0 mm 4 mps 764 mmHg 81%
23:00 0°C° 0 mm 5 mps 764 mmHg 78%
Mostrar más

Necesitamos Su Consentimiento

Meteoprog y nuestros Proveedores de Servicios pueden almacenar y acceder a sus datos personales como cookies, identificadores de dispositivo u otras tecnologías similares de su dispositivo y procesar dichos datos para personalizar contenido y anuncios, además de ofrecer funciones de redes sociales y analizar el tráfico.

  • Almacenar y/o acceder a información en su dispositivo

    Se puede almacenar o acceder a cookies, identificadores de dispositivo u otra información de su dispositivo para los fines anteriormente indicados.

  • Anuncios y contenido personalizados, medición de anuncios y contenido, percepciones del público, y desarrollo de productos

    Los anuncios y el contenido pueden personalizarse en base a su perfil. Se pueden añadir más datos para personalizar mejor los anuncios y contenidos. Se puede medir el rendimiento de los anuncios y contenidos. Se puede obtener la percepción sobre el público que ha visto los anuncios y contenidos. Dichos datos pueden usarse para desarrollar o mejorar la experiencia del usuario, sistemas y software.

Al hacer clic en ‘Estoy De Acuerdo’ usted permitirá el uso de las cookies, identificadores de dispositivo, balizas web u otras tecnologías similares indicadas. Su configuración puede cambiarse desde el navegador de su dispositivo.

Para ciertos fines, los intereses legítimos pueden ser considerados por encima del consentimiento. Puede leer más sobre ello en nuestra Política de Privacidad y Cookies.